Wind_Speed
15 15 11 8 6 6 7 6 6 4 3 7 9 11 10 7 4 4 3 3 4 5 5 6 9 8 10 10 9 11 13 14 13 18 18 18 16 16 17 17 19 25 30
6 13 13 9 8 9 8 7 7 12 14 13 11 8 5 3 4 4 4 3 5 7 7 8 9 10 12 11 11 12 13 14 16 17 19 19 17 18 17 17 18 17 21
14 13 12 12 12 10 11 12 14 14 13 10 7 4 2 1 1 0 2 4 7 8 9 11 13 12 13 13 13 15 16 17 16 17 19 19 19 18 17 16 17 20 20
14 14 13 12 12 12 12 13 13 13 11 7 4 3 2 4 4 3 5 7 8 9 10 10 10 9 10 13 14 16 17 18 18 17 18 18 17 19 16 18 16 14 15
15 14 13 12 13 13 15 13 13 11 8 7 7 5 5 6 3 3 7 8 9 10 11 10 11 13 15 14 15 17 17 19 20 19 19 18 17 16 16 17 17 16 14
13 12 13 12 13 14 15 13 12 9 7 6 5 4 5 5 5 7 9 7 8 11 13 14 14 14 12 15 16 17 17 17 19 19 20 18 18 16 16 13 14 14 5
12 13 15 14 12 12 11 11 9 6 4 4 6 7 8 4 7 9 12 11 12 12 13 11 12 12 13 15 19 23 22 21 20 19 21 21 18 14 10 13 13 14 14
16 15 12 10 11 9 8 7 4 2 5 6 6 6 7 5 10 13 16 13 12 10 9 9 9 9 11 17 18 19 18 19 20 20 21 21 19 16 13 12 14 15 13
10 11 9 8 7 5 3 2 3 7 7 8 9 8 7 7 11 13 11 8 9 9 9 7 4 7 14 19 17 16 18 20 18 17 18 17 21 24 24 19 18 11 12
5 6 6 4 2 1 2 4 6 8 9 8 7 6 8 9 9 9 8 8 9 11 11 6 7 10 15 17 18 16 17 21 18 16 15 14 14 15 17 18 22 19 13
5 5 3 1 2 4 6 8 9 9 6 6 6 7 7 6 6 8 6 6 9 11 8 9 10 16 18 17 17 14 16 19 16 13 12 11 10 10 12 13 18 22 20
3 2 0 2 4 5 6 5 3 4 5 7 9 9 8 7 7 5 7 9 11 9 10 13 14 19 19 16 12 14 14 13 12 13 14 14 13 16 13 13 14 20 20
0 1 2 2 3 4 3 3 4 6 6 7 7 8 9 9 7 10 9 8 8 11 12 16 14 14 15 15 17 16 15 15 16 18 17 17 19 17 16 15 14 16 18
2 4 5 5 5 5 5 6 6 6 5 6 9 10 11 10 8 8 11 12 12 11 16 12 13 14 14 15 16 14 12 13 14 16 17 16 18 20 17 13 11 10 12
9 11 12 12 13 12 7 7 6 5 6 8 8 8 7 8 8 11 12 14 16 17 15 13 14 15 15 16 17 17 14 15 15 18 17 16 17 20 16 8 9 8 9
17 16 18 15 13 11 8 4 4 4 6 7 7 4 5 6 7 8 11 15 19 19 13 13 14 14 15 16 16 17 16 17 17 17 18 17 19 18 16 12 9 12 12
16 23 18 13 6 5 7 6 6 3 4 6 3 5 6 6 8 8 11 14 21 19 16 15 14 15 15 15 16 17 18 18 17 18 18 19 18 22 14 10 8 7 9
19 12 11 9 7 8 6 5 4 3 7 4 3 4 6 6 7 10 14 16 18 18 16 15 15 15 16 16 17 18 18 18 18 19 19 19 22 18 17 13 11 9 7
6 9 4 5 4 3 2 2 4 3 4 3 2 3 2 2 4 9 13 14 16 16 14 14 15 16 17 18 18 19 20 20 19 18 19 25 21 20 17 17 6 11 16
5 6 7 2 1 2 4 7 3 1 2 0 2 4 7 3 1 5 9 12 14 15 13 13 13 14 16 19 20 20 20 20 20 19 20 23 21 19 18 18 15 22 20
4 7 4 2 1 3 3 3 3 4 3 4 5 7 10 6 3 3 6 9 11 13 13 13 13 14 16 17 19 20 21 22 22 20 19 19 21 19 16 20 21 26 26
5 5 5 2 3 3 1 2 4 7 8 8 6 6 10 4 2 0 3 6 8 10 12 13 14 13 13 16 16 22 19 22 20 20 19 18 19 18 18 18 21 20 18
1 2 3 4 3 3 7 8 6 7 8 10 9 7 5 3 3 3 3 5 6 8 10 13 15 15 12 13 15 18 19 23 18 17 18 17 16 15 15 13 17 18 18
6 5 5 4 3 5 4 3 3 5 7 9 11 10 10 9 8 8 7 6 7 8 9 11 13 15 15 14 14 18 19 21 23 17 14 15 13 12 10 12 11 17 16
9 9 8 8 8 8 8 8 7 7 7 8 8 8 9 9 10 10 8 7 8 8 9 10 12 15 16 15 14 16 18 17 18 16 13 10 11 10 9 12 11 10 10
12 12 12 11 12 11 10 9 8 8 8 8 8 8 9 9 9 9 9 10 10 10 11 11 13 15 15 14 14 13 16 17 18 13 10 9 8 8 9 8 10 11 11
Wind_Direction
156 161 154 169 173 157 147 159 153 161 142 127 105 92 90 82 60 44 39 13 338 331 329 320 316 312 304 303 299 289 281 284 283 293 292 292 292 289 290 279 267 257 262
217 143 131 146 156 143 132 143 134 120 115 110 100 89 81 62 30 27 32 358 310 307 313 309 303 299 293 291 293 292 295 297 296 294 294 290 285 290 289 284 279 270 270
162 138 144 148 144 135 137 139 130 123 118 108 93 60 21 328 110 51 289 275 281 290 303 303 296 293 290 293 295 287 290 289 289 290 290 292 289 290 290 288 283 276 274
134 130 138 147 139 136 143 146 136 128 123 115 107 121 153 189 206 245 275 284 287 292 298 309 302 292 291 302 301 297 296 290 286 286 288 294 290 289 285 285 285 281 274
128 139 142 140 143 150 145 146 143 141 146 156 158 176 196 221 257 295 304 296 282 297 304 314 311 303 305 298 296 295 294 286 284 283 286 291 290 295 288 290 287 292 284
144 146 148 142 153 152 148 150 157 162 176 188 200 234 266 275 266 303 319 296 302 316 318 311 306 311 318 320 315 312 301 285 279 281 281 286 286 292 298 297 285 292 292
149 138 131 134 144 152 155 158 167 181 208 237 264 276 284 297 311 322 328 331 322 314 315 313 313 314 332 325 317 309 301 294 286 273 275 277 284 285 300 303 302 290 277
126 117 128 138 148 160 162 170 171 248 278 277 285 300 308 316 327 326 328 321 314 320 319 316 311 328 343 345 334 320 318 308 293 278 271 272 276 278 280 288 294 292 280
66 116 124 137 147 169 161 191 286 285 289 295 310 322 325 335 328 326 330 333 329 322 309 306 318 344 2 357 343 322 324 326 318 302 299 286 272 270 267 269 265 265 268
155 126 132 139 153 201 255 280 305 314 313 320 330 334 332 327 321 330 338 332 324 315 309 292 309 330 337 339 346 333 321 330 320 312 303 295 287 283 281 253 254 250 248
177 126 122 223 291 310 319 317 317 319 325 333 331 328 331 326 328 325 334 338 315 309 297 308 309 315 324 329 334 340 330 327 334 332 324 316 302 293 279 256 244 243 242
148 139 122 312 333 332 328 330 345 348 337 331 336 335 338 342 335 334 334 324 312 294 294 306 311 313 322 323 323 329 339 340 337 341 340 328 316 304 291 279 257 242 234
272 338 324 357 66 66 62 29 343 336 336 340 348 341 342 346 347 344 342 337 329 314 307 306 317 334 338 337 323 317 313 320 330 330 327 336 334 309 289 283 270 248 230
63 87 73 62 43 20 3 358 357 358 9 0 357 2 1 2 20 17 13 15 7 354 344 336 338 345 344 346 347 345 334 327 329 327 317 318 318 326 310 270 254 224 209
50 46 35 20 9 348 355 12 29 45 42 20 23 20 25 43 14 10 23 17 8 355 348 340 342 344 344 349 352 355 355 353 348 342 330 320 328 332 320 307 241 225 211
41 27 359 329 335 315 336 350 19 55 44 50 61 23 339 349 22 44 32 23 14 9 5 360 356 353 353 350 351 348 350 350 345 340 338 325 322 335 317 293 275 224 221
354 348 328 315 317 333 348 335 315 11 93 102 33 359 25 79 67 50 31 20 13 18 17 12 8 4 0 358 354 352 347 345 342 341 335 334 329 330 323 300 282 240 221
313 309 309 309 342 2 5 10 46 103 126 102 30 68 93 76 61 45 32 20 15 19 22 19 14 10 5 1 359 359 354 352 349 347 345 343 342 336 322 302 251 228 170
333 336 358 46 12 20 35 68 109 114 111 106 101 69 19 360 41 37 35 27 18 17 16 16 14 13 11 7 0 360 359 358 356 351 353 354 355 346 345 349 172 161 135
30 51 103 189 101 92 95 119 136 205 200 139 360 8 356 336 20 28 28 25 21 18 12 11 11 12 7 5 2 1 0 358 1 355 358 358 8 10 11 34 97 118 103
117 151 167 161 99 90 116 147 346 336 346 328 342 4 344 333 14 54 30 26 22 18 13 6 3 4 5 0 5 358 355 356 2 1 3 2 359 359 55 65 75 105 95
113 161 159 149 79 27 272 180 258 280 305 309 307 291 302 309 315 122 34 27 22 17 13 8 2 355 354 355 354 352 355 354 357 4 6 10 9 37 71 83 86 105 96
335 145 193 181 195 268 268 267 279 309 332 342 352 357 33 30 26 358 9 15 15 12 11 9 6 1 352 351 352 360 356 355 355 357 8 18 24 42 78 93 113 109 113
46 36 50 48 2 309 327 5 40 58 65 54 52 48 48 44 40 19 350 356 360 5 7 7 6 4 359 354 354 0 6 7 13 4 2 18 36 46 72 88 99 130 123
45 44 44 40 41 48 58 63 66 66 57 54 57 51 46 36 30 25 15 0 358 359 357 358 356 354 354 355 353 1 3 356 357 6 10 23 39 57 84 85 93 97 104
51 53 54 54 55 54 53 52 49 47 51 54 42 32 21 19 15 10 6 2 354 347 345 341 340 342 344 349 350 356 4 4 4 4 15 24 38 66 84 103 110 96 101
Height
774 784 783 791 793 793 795 800 803 805 807 809 810 810 810 812 814 814 815 816 818 817 815 814 814 814 812 810 808 806 804 802 799 794 792 789 787 785 783 781 779 779 778
785 779 778 788 794 792 794 799 802 803 806 808 809 812 812 812 813 813 814 814 817 816 814 812 811 811 809 807 805 803 800 798 796 791 789 785 783 781 778 776 774 773 772
780 776 785 792 792 792 795 800 800 802 806 809 810 811 811 812 812 813 813 814 814 813 812 810 808 807 806 803 801 798 795 793 790 787 783 781 779 777 774 772 770 767 766
785 787 792 793 791 791 797 801 801 802 806 810 811 811 811 812 812 811 811 811 811 810 808 806 804 803 801 800 797 793 791 789 785 782 778 775 774 772 770 767 765 763 761
781 785 788 788 790 794 797 801 803 805 808 809 809 809 809 809 810 811 810 808 807 806 805 802 802 800 797 795 793 789 785 783 779 775 772 770 768 767 766 763 761 759 758
784 785 786 788 794 796 797 800 804 805 807 807 807 807 807 809 809 807 805 805 804 801 799 800 799 796 793 789 787 783 782 779 774 771 766 764 764 763 761 761 758 756 755
789 789 788 791 795 797 798 800 804 804 805 805 805 805 805 806 805 803 802 800 799 798 797 796 795 793 789 785 781 777 774 772 768 766 763 761 759 759 758 757 755 753 750
784 788 792 792 796 799 799 802 802 802 803 803 804 802 802 802 800 800 799 798 797 795 795 795 793 790 786 781 776 772 768 765 762 759 757 755 754 754 754 754 753 751 748
787 788 791 794 797 800 799 799 800 801 801 802 801 799 799 800 798 798 797 796 794 794 794 792 791 787 782 778 772 768 764 759 755 752 750 748 748 747 747 749 747 748 744
790 792 792 795 797 797 796 797 798 799 800 800 800 798 798 799 798 797 795 794 793 794 792 789 786 783 778 775 770 766 760 755 750 747 745 743 742 741 739 739 740 739 740
792 792 794 796 797 797 796 796 798 798 798 799 799 799 797 797 796 795 793 792 793 791 788 785 782 779 774 770 767 763 759 753 748 743 740 738 736 735 734 733 733 732 732
793 794 795 797 797 797 797 798 798 798 800 800 798 796 796 796 794 793 791 790 790 788 785 782 778 774 770 766 763 759 755 751 747 743 740 736 733 731 729 728 727 726 727
796 797 798 797 796 798 799 800 800 799 799 798 797 796 794 794 793 791 790 789 787 785 782 778 774 771 767 763 759 755 752 748 745 741 737 734 731 726 723 722 721 721 722
799 799 799 800 802 801 801 800 799 798 798 799 798 795 794 793 792 793 790 788 786 782 778 775 771 769 765 761 757 753 749 746 743 740 736 732 728 722 719 718 717 717 718
803 803 804 805 803 804 802 799 799 800 799 798 798 797 797 796 796 794 791 789 786 782 777 774 770 768 764 761 757 753 750 746 742 738 734 730 725 721 716 714 713 713 714
807 806 805 804 802 804 803 801 800 799 798 799 799 800 801 799 797 795 793 790 786 781 777 775 772 769 766 762 758 755 750 747 743 738 733 728 723 719 714 711 710 710 710
813 808 804 804 802 802 800 801 801 799 797 800 802 802 800 799 797 796 793 790 786 782 780 777 774 772 768 765 761 756 751 748 743 738 733 728 723 717 712 710 708 707 708
807 805 804 806 805 804 803 803 801 801 800 802 803 802 801 800 798 797 794 791 788 785 783 781 778 774 771 767 762 757 753 748 743 738 733 728 722 716 710 705 705 706 707
804 805 806 806 806 804 804 804 806 807 803 803 803 802 801 800 799 797 795 793 791 788 786 783 780 777 773 768 764 759 755 750 745 739 735 729 722 715 710 702 699 704 707
804 804 805 804 805 806 805 804 808 808 805 803 802 801 801 798 798 797 796 795 793 791 788 786 783 780 776 772 767 762 757 752 747 741 737 731 724 719 713 707 704 707 711
802 803 805 805 807 806 806 807 809 808 806 804 803 802 801 799 797 797 797 796 795 793 791 788 785 781 778 775 771 767 761 756 750 745 740 735 729 723 719 717 714 716 718
803 803 805 806 807 808 808 806 806 806 804 802 801 800 800 799 798 798 797 796 796 794 793 790 787 784 781 778 775 769 764 760 755 750 744 740 735 729 727 726 726 728 731
804 804 805 805 805 805 806 806 804 803 802 801 799 799 798 799 799 798 798 797 796 795 793 791 788 786 783 781 776 772 768 762 757 754 749 744 742 738 736 735 736 737 739
807 806 806 806 806 805 804 804 804 804 804 803 803 803 803 802 801 800 799 798 797 796 794 792 790 787 784 781 778 774 769 765 760 756 753 749 747 744 744 743 741 743 745
810 809 808 808 808 807 806 806 806 806 807 806 806 806 805 804 803 802 801 800 798 797 795 793 791 788 785 782 779 775 771 767 762 759 755 752 750 749 748 748 748 749 750
813 812 812 812 811 810 810 810 810 810 809 810 809 808 807 806 805 803 802 801 799 797 795 793 790 788 785 782 778 775 772 768 763 760 757 755 753 752 752 752 753 753 754